Saratoga Shively Field Airpor, WY

7:59 PM MDT on June 25, 2017 (GMT -0600)
Shively

Weather History for KSAA - March, 2014

Change the Weather History Date:

Saturday, March 8, 2014

  Actual Average Record
Temperature  
Mean Temperature 30 °F -  
Max Temperature 42 °F 43 °F 44 °F (2017)
Min Temperature 19 °F 20 °F 17 °F (2015)
Degree Days  
Heating Degree Days 34    
Moisture  
Dew Point 22 °F    
Average Humidity 72    
Maximum Humidity 100    
Minimum Humidity 36    
Precipitation  
Precipitation 0.00 in - - ()
Sea Level Pressure  
Sea Level Pressure 30.30 in    
Wind  
Wind Speed 5 mph (SSW)    
Max Wind Speed 20 mph    
Max Gust Speed 25 mph    
Visibility 10 miles    
Events      
Averages and records for this station are not official NWS values.
T = Trace of Precipitation, MM = Missing Value Source: NWS Daily Summary

Daily Weather History Graph

Daily Weather History Graph

Search for Another Location

Airport or City:

Trip Planner

Search our weather history database for the weather conditions in past years. The results will help you decide how hot, cold, wet, or windy it might be!

Date:

Astronomy

Mar. 08, 2014 Rise Set
Actual Time 6:30 AM MST 6:06 PM MST
Civil Twilight 6:02 AM MST 6:33 PM MST
Nautical Twilight 5:30 AM MST 7:05 PM MST
Astronomical Twilight 4:58 AM MST 7:38 PM MST
Moon 11:09 AM MST (3/8) 1:10 AM MST (3/8)
Length of Visible Light 12h 30m
Length of Day
11h 35m
First Quarter, 52% of the Moon is Illuminated
Mar 8
First Quarter
Mar 16
Full
Mar 23
Last Quarter
Mar 30
New
Apr 7
First Quarter

Hourly Weather History & Observations

Time (MST) Temp. Windchill Dew Point Humidity Pressure Visibility Wind Dir Wind Speed Gust Speed Precip Events Conditions
12:15 AM 26.6 °F 22.6 °F 23.0 °F 86% 30.20 in 10.0 mi SE 3.5 mph - N/A   Overcast
12:35 AM 26.6 °F 22.6 °F 23.0 °F 86% 30.20 in 10.0 mi SSE 3.5 mph - N/A   Overcast
12:55 AM 26.6 °F - 23.0 °F 86% 30.20 in 10.0 mi Calm Calm - N/A   Overcast
1:15 AM 26.6 °F 21.2 °F 23.0 °F 86% 30.21 in 10.0 mi SSE 4.6 mph - N/A   Overcast
1:35 AM 24.8 °F 17.9 °F 23.0 °F 93% 30.21 in 10.0 mi SSE 5.8 mph - N/A   Overcast
1:55 AM 24.8 °F 19.1 °F 21.2 °F 86% 30.21 in 10.0 mi South 4.6 mph - N/A   Mostly Cloudy
2:15 AM 23.0 °F 17.0 °F 21.2 °F 93% 30.21 in 10.0 mi South 4.6 mph - N/A   Mostly Cloudy
2:35 AM 24.8 °F 16.9 °F 23.0 °F 93% 30.21 in 10.0 mi South 6.9 mph - N/A   Mostly Cloudy
2:55 AM 23.0 °F - 21.2 °F 93% 30.22 in 10.0 mi Calm Calm - N/A   Scattered Clouds
3:15 AM 23.0 °F - 21.2 °F 93% 30.22 in 10.0 mi Calm Calm - N/A   Mostly Cloudy
3:35 AM 23.0 °F - 21.2 °F 93% 30.22 in 10.0 mi Calm Calm - N/A   Scattered Clouds
3:55 AM 21.2 °F - 19.4 °F 93% 30.23 in 10.0 mi Calm Calm - N/A   Clear
4:15 AM 19.4 °F - 19.4 °F 100% 30.23 in 10.0 mi Calm Calm - N/A   Clear
4:35 AM 21.2 °F - 19.4 °F 93% 30.23 in 10.0 mi Calm Calm - N/A   Clear
4:55 AM 19.4 °F - 19.4 °F 100% 30.24 in 10.0 mi Calm Calm - N/A   Clear
5:15 AM 21.2 °F - 19.4 °F 93% 30.25 in 10.0 mi Calm Calm - N/A   Mostly Cloudy
5:35 AM 21.2 °F - 19.4 °F 93% 30.26 in 10.0 mi Calm Calm - N/A   Overcast
5:55 AM 21.2 °F 14.9 °F 19.4 °F 93% 30.27 in 10.0 mi SE 4.6 mph - N/A   Scattered Clouds
6:15 AM 19.4 °F 14.3 °F 19.4 °F 100% 30.27 in 10.0 mi SE 3.5 mph - N/A   Clear
6:35 AM 19.4 °F 14.3 °F 17.6 °F 93% 30.28 in 10.0 mi SE 3.5 mph - N/A   Clear
6:55 AM 19.4 °F - 19.4 °F 100% 30.29 in 10.0 mi Calm Calm - N/A   Scattered Clouds
7:15 AM 23.0 °F 17.0 °F 21.2 °F 93% 30.29 in 10.0 mi ESE 4.6 mph - N/A   Scattered Clouds
7:35 AM 23.0 °F 13.9 °F 21.2 °F 93% 30.29 in 10.0 mi SE 8.1 mph - N/A   Mostly Cloudy
7:55 AM 26.6 °F 20.0 °F 23.0 °F 86% 30.30 in 10.0 mi SE 5.8 mph - N/A   Scattered Clouds
8:15 AM 28.4 °F 22.2 °F 23.0 °F 80% 30.31 in 10.0 mi SE 5.8 mph - N/A   Clear
8:35 AM 30.2 °F 23.4 °F 24.8 °F 80% 30.31 in 10.0 mi SE 6.9 mph - N/A   Clear
8:55 AM 32.0 °F 25.6 °F 24.8 °F 75% 30.32 in 10.0 mi SE 6.9 mph - N/A   Clear
9:15 AM 32.0 °F 26.4 °F 24.8 °F 75% 30.31 in 10.0 mi SE 5.8 mph - N/A   Clear
9:35 AM 33.8 °F 29.6 °F 26.6 °F 75% 30.32 in 10.0 mi SSE 4.6 mph - N/A   Clear
9:55 AM 35.6 °F - 26.6 °F 70% 30.31 in 10.0 mi Calm Calm - N/A   Scattered Clouds
10:15 AM 35.6 °F 31.7 °F 26.6 °F 70% 30.31 in - SW 4.6 mph - N/A   Mostly Cloudy
10:35 AM 35.6 °F 31.7 °F 26.6 °F 70% 30.32 in 10.0 mi NNW 4.6 mph - N/A   Overcast
10:55 AM 35.6 °F 29.9 °F 26.6 °F 70% 30.33 in 10.0 mi NNW 6.9 mph - N/A   Mostly Cloudy
11:15 AM 37.4 °F 30.8 °F 24.8 °F 60% 30.33 in 10.0 mi West 9.2 mph - N/A   Mostly Cloudy
11:35 AM 37.4 °F 30.8 °F 24.8 °F 60% 30.33 in 10.0 mi West 9.2 mph - N/A   Mostly Cloudy
11:55 AM 39.2 °F 33.0 °F 24.8 °F 56% 30.32 in 10.0 mi West 9.2 mph - N/A   Scattered Clouds
12:15 PM 41.0 °F 35.2 °F 23.0 °F 49% 30.32 in 10.0 mi WNW 9.2 mph - N/A   Scattered Clouds
12:35 PM 41.0 °F 35.2 °F 23.0 °F 49% 30.30 in 10.0 mi West 9.2 mph - N/A   Scattered Clouds
12:56 PM 41.0 °F 33.9 °F 23.0 °F 49% 30.30 in 10.0 mi WNW 12.7 mph 18.4 mph N/A   Clear
1:15 PM 42.8 °F 36.2 °F 19.4 °F 39% 30.31 in 10.0 mi West 12.7 mph 17.3 mph N/A   Scattered Clouds
1:35 PM 42.8 °F 35.8 °F 17.6 °F 36% 30.30 in 10.0 mi WNW 13.8 mph 19.6 mph N/A   Clear
1:55 PM 42.8 °F 36.2 °F 19.4 °F 39% 30.31 in 10.0 mi West 12.7 mph 20.7 mph N/A   Clear
2:15 PM 42.8 °F 35.8 °F 21.2 °F 42% 30.32 in 10.0 mi West 13.8 mph 21.9 mph N/A   Clear
2:35 PM 41.0 °F 33.5 °F 21.2 °F 45% 30.32 in 10.0 mi West 13.8 mph 21.9 mph N/A   Clear
2:55 PM 41.0 °F 32.5 °F 21.2 °F 45% 30.33 in 10.0 mi West 17.3 mph 23.0 mph N/A   Clear
3:15 PM 41.0 °F 31.9 °F 23.0 °F 49% 30.34 in 10.0 mi West 19.6 mph 25.3 mph N/A   Clear
3:35 PM 41.0 °F 32.2 °F 24.8 °F 53% 30.34 in 10.0 mi West 18.4 mph 25.3 mph N/A   Clear
3:55 PM 41.0 °F 32.8 °F 24.8 °F 53% 30.32 in 10.0 mi West 16.1 mph 21.9 mph N/A   Clear
4:15 PM 41.0 °F 34.3 °F 24.8 °F 53% 30.32 in 10.0 mi WSW 11.5 mph - N/A   Clear
4:35 PM 41.0 °F 34.3 °F 24.8 °F 53% 30.32 in 10.0 mi WSW 11.5 mph - N/A   Clear
4:55 PM 41.0 °F 34.3 °F 23.0 °F 49% 30.32 in 10.0 mi WSW 11.5 mph - N/A   Clear
5:15 PM 41.0 °F 35.2 °F 23.0 °F 49% 30.32 in 10.0 mi SW 9.2 mph - N/A   Clear
5:35 PM 37.4 °F 33.8 °F 23.0 °F 56% 30.32 in 10.0 mi WSW 4.6 mph - N/A   Clear
5:55 PM 35.6 °F 30.7 °F 23.0 °F 60% 30.32 in 10.0 mi West 5.8 mph - N/A   Clear
6:15 PM 33.8 °F 28.6 °F 24.8 °F 70% 30.32 in 10.0 mi WSW 5.8 mph - N/A   Clear
6:35 PM 32.0 °F 26.4 °F 23.0 °F 69% 30.32 in 10.0 mi WSW 5.8 mph - N/A   Clear
6:55 PM 32.0 °F 28.7 °F 23.0 °F 69% 30.33 in 10.0 mi South 3.5 mph - N/A   Clear
7:15 PM 30.2 °F 25.4 °F 23.0 °F 75% 30.33 in 10.0 mi South 4.6 mph - N/A   Clear
7:35 PM 30.2 °F 25.4 °F 23.0 °F 75% 30.34 in 10.0 mi South 4.6 mph - N/A   Clear
7:55 PM 32.0 °F 25.6 °F 23.0 °F 69% 30.36 in 10.0 mi SSW 6.9 mph - N/A   Clear
8:15 PM 30.2 °F 24.3 °F 23.0 °F 75% 30.36 in 10.0 mi South 5.8 mph - N/A   Clear
8:35 PM 32.0 °F 25.6 °F 23.0 °F 69% 30.37 in 10.0 mi South 6.9 mph - N/A   Clear
8:55 PM 32.0 °F 23.0 °F 23.0 °F 69% 30.37 in 10.0 mi SE 11.5 mph - N/A   Clear
9:15 PM 30.2 °F 23.4 °F 23.0 °F 75% 30.38 in 10.0 mi SE 6.9 mph - N/A   Clear
9:35 PM 32.0 °F 23.6 °F 23.0 °F 69% 30.37 in 10.0 mi SSE 10.4 mph - N/A   Clear
9:55 PM 30.2 °F 21.9 °F 23.0 °F 75% 30.37 in 10.0 mi South 9.2 mph - N/A   Clear
10:15 PM 30.2 °F 21.3 °F 23.0 °F 75% 30.37 in 10.0 mi South 10.4 mph - N/A   Clear
10:33 PM 32.0 °F 23.0 °F 23.0 °F 69% 30.36 in 10.0 mi SSE 11.5 mph 17.3 mph N/A   Clear
10:55 PM 30.2 °F 22.6 °F 23.0 °F 75% 30.36 in 10.0 mi SSE 8.1 mph - N/A   Clear
11:15 PM 30.2 °F 21.9 °F 21.2 °F 69% 30.35 in 10.0 mi SSE 9.2 mph - N/A   Clear
11:35 PM 30.2 °F 20.8 °F 21.2 °F 69% 30.34 in 10.0 mi SSE 11.5 mph - N/A   Clear
11:55 PM 30.2 °F 21.9 °F 21.2 °F 69% 30.33 in 10.0 mi SSE 9.2 mph - N/A   Clear